{"data":{"norad_id":66201,"epoch":"2026-05-25T00:32:25.492992Z","epoch_age_seconds":83363,"freshness":"FRESH","line1":"1 66201U 25243AA  26145.02251728  .00015904  00000+0  52284-3 0  9998","line2":"2 66201  53.1577 250.4804 0001356  79.0873 281.0281 15.31719723 32340","mean_motion":15.31719723,"eccentricity":0.0001356,"inclination_deg":53.1577,"raan_deg":250.4804,"arg_perigee_deg":79.0873,"mean_anomaly_deg":281.0281,"bstar":0.00052284,"rev_number":3234,"period_min":94.011977411875,"perigee_km":469.75250287154,"apogee_km":471.60990236809,"semimajor_km":6848.8182026198,"source":"CELESTRAK","updated_at":"2026-05-25T13:38:21.125056Z"}}